Regional Weather Roundup
Issued by NWS

Home | Current Version | Previous Version | Text Only | Print | Product List | Glossary Off
Versions: 1 2 3 4 5 6 7 8 9 10 11 12 13 14 15 16 17 18 19 20 21 22 23 24 25 26 27 28 29 30 31 32 33 34 35 36 37 38 39 40 41 42 43 44 45 46 47 48 49 50

181
ASUS43 KOAX 202210
RWRNE

WEATHER ROUNDUP FOR NEBRASKA
NATIONAL WEATHER SERVICE OMAHA NE
400 PM CST TUE FEB 20 2018

NOTES: SATELLITE DATA IS BEING USED TO AUGMENT CLOUD COVER ABOVE
       12000 FEET.
       "FAIR" INDICATES FEW OR NO CLOUDS BELOW 12,000 FEET WITH NO
       SIGNIFICANT WEATHER AND/OR OBSTRUCTIONS TO VISIBILITY.


NEZ001>004-019>022-054>056-202300-
NEBRASKA PANHANDLE

CITY           SKY/WX    TMP DP  RH WIND       PRES   REMARKS
SCOTTSBLUFF    FAIR      13  -1  54 NW8       30.09R WCI   2
ALLIANCE       FAIR       8  -2  63 W6        30.08R WCI  -2
CHADRON        FAIR       6  -5  60 W14       30.15R WCI -11
GORDON         FAIR       7  -4  61 SW3       30.11R
KIMBALL        FAIR      10  -1  63 SW8       30.02R WCI  -3
SIDNEY         FAIR      10  -3  55 NW9       30.07R WCI  -3
$$

NEZ057>060-069>072-079>082-202300-
SOUTHWEST NEBRASKA

CITY           SKY/WX    TMP DP  RH WIND       PRES   REMARKS
NORTH PLATTE   FAIR      14   1  56 NW12      30.18R WCI   0
IMPERIAL       FAIR      16   2  54 N15       30.13R WCI   1
LEXINGTON      FAIR      17   4  58 NW9       30.21R WCI   5
MCCOOK         FAIR      18   4  54 N13       30.19R WCI   5
OGALLALA       FAIR      13   0  55 NW12      30.15R WCI   0
$$

NEZ005>010-023>029-035>040-094-202300-
NORTH CENTRAL NEBRASKA

CITY           SKY/WX    TMP DP  RH WIND       PRES   REMARKS
VALENTINE      FAIR       9  -3  58 NW9       30.20R WCI  -4
AINSWORTH      FAIR      10   1  68 NW14G20   30.18R WCI  -7
BROKEN BOW     FAIR      12   1  61 N13       30.20R WCI  -3
O`NEILL        FAIR      10   2  72 NW15      30.24R WCI  -7
ORD            FAIR      14   3  61 N10       30.23R WCI   1
THEDFORD       FAIR      10   0  64 NW14      30.17R WCI  -6
$$

NEZ041-046>049-061>064-073>077-083>087-202300-
SOUTH CENTRAL NEBRASKA

CITY           SKY/WX    TMP DP  RH WIND       PRES   REMARKS
GRAND ISLAND   FAIR      19   6  57 N21G30    30.22R WCI   3
AURORA         FAIR      19   7  60 NW18      30.21R WCI   3
HASTINGS       FAIR      19   6  57 N20G25    30.21R WCI   3
HEBRON         FAIR      24  10  54 N13G22    30.22R WCI  12
HOLDREGE       FAIR      18   6  58 N13G20    30.20R WCI   5
KEARNEY        FAIR      19   5  54 N16G22    30.22R WCI   4
YORK           FAIR      19   9  63 NW16G22   30.22R WCI   5
$$

NEZ011>018-030>034-042>045-202300-
NORTHEAST NEBRASKA

CITY           SKY/WX    TMP DP  RH WIND       PRES   REMARKS
NORFOLK        FAIR      14   6  70 NW20G25   30.21R WCI  -3
ALBION         FAIR      15   6  68 NW14G21   30.23R WCI   0
BLAIR          CLOUDY    18  12  79 NW10G16   30.21R WCI   6
COLUMBUS       FAIR      17  10  74 NW15      30.24R WCI   2
FREMONT        PTSUNNY   18  11  73 NW17      30.24R WCI   3
TEKAMAH        PTSUNNY   18  10  71 NW22G31   30.24R WCI   1
WAYNE          FAIR      14   7  73 NW17G24   30.22R WCI  -3
$$

NEZ050>053-065>068-078-088>093-202300-
SOUTHEAST NEBRASKA

CITY           SKY/WX    TMP DP  RH WIND       PRES   REMARKS
LINCOLN        PTSUNNY   21  10  62 N17       30.25R WCI   7
OMAHA EPPLEY   PTSUNNY   19  11  70 NW17      30.23R WCI   4
BEATRICE       FAIR      23  13  65 NW21      30.20R WCI   8
FALLS CITY     CLOUDY    21  14  74 N16G28    30.19R WCI   7
NEBRASKA CITY  CLOUDY    20  15  81 N17G25    30.20R WCI   5
PLATTSMOUTH    CLOUDY    19  12  76 NW17      30.20R WCI   3
$$

NEZ044-045-051>053-067-202300-
OMAHA AREA

CITY           SKY/WX    TMP DP  RH WIND       PRES   REMARKS
OMAHA EPPLEY   PTSUNNY   19  11  70 NW17      30.23R WCI   4
BLAIR          CLOUDY    18  12  79 NW10G16   30.21R WCI   6
FREMONT        PTSUNNY   18  11  73 NW17      30.24R WCI   3
MILLARD        CLOUDY    20  11  69 NW16G23   30.24R WCI   6
OFFUTT AFB     CLOUDY    19  10  67 NW16G23   30.21R WCI   5
PLATTSMOUTH    CLOUDY    19  12  76 NW17      30.20R WCI   3
WAHOO          MOCLDY    19  12  72 N18G24    30.23R WCI   4
$$




USA.gov is the U.S. government's official web portal to all federal, state and local government web resources and services.